Regional Weather Roundup
Issued by NWS

Home | Current Version | Previous Version | Graphics & Text | Print | Product List | Glossary On
Versions: 1 2 3 4 5 6 7 8 9 10 11 12 13 14 15 16 17 18 19 20 21 22 23 24 25 26 27 28 29 30 31 32 33 34 35 36 37 38 39 40 41 42 43 44 45 46 47 48 49 50
000
ASUS43 KLOT 261121
RWRIL

ILLINOIS REGIONAL WEATHER ROUNDUP
NATIONAL WEATHER SERVICE CHICAGO/ROMEOVILLE IL
600 AM CDT TUE MAY 26 2015

NOTE: "FAIR" INDICATES FEW OR NO CLOUDS BELOW 12,000 FEET WITH NO
SIGNIFICANT WEATHER AND/OR OBSTRUCTIONS TO VISIBILITY.

* THESE STATIONS ARE NOT UNDER NWS QUALITY CONTROL. THEY ALSO MAY NOT
  REPORT WEATHER SUCH AS PRECIPITATION OR FOG.

ILZ001-002-007-009-015-016-024-261200-
NORTHWEST ILLINOIS

CITY           SKY/WX    TMP DP  RH WIND       PRES   REMARKS
MOLINE         MOCLDY    69  65  86 SE12      29.82S
STERLING*      CLOUDY    68  64  88 S7        29.88R
SAVANNA*       MOCLDY    67  65  92 S8        29.85R
$$

ILZ003-004-008-010-011-017-018-261200-
NORTH CENTRAL ILLINOIS

CITY           SKY/WX    TMP DP  RH WIND       PRES   REMARKS
ROCKFORD       CLOUDY    67  64  90 S8        29.91S
FREEPORT*      MOCLDY    66  64  96 SE12      29.88F FOG
ROCHELLE*      CLOUDY    65  64  97 S9        29.90F FOG
DE KALB*       CLOUDY    64  63  95 S12       29.92F FOG
PERU*          CLOUDY    68  65  90 S13       29.91R
$$

ILZ005-006-012>014-019>023-261200-
NORTHEAST ILLINOIS

CITY           SKY/WX    TMP DP  RH WIND       PRES   REMARKS
CHICAGO-OHARE  CLOUDY    68  64  87 S9        29.93S
CHICAGO-MIDWAY CLOUDY    70  65  84 S12       29.94S
AURORA         CLOUDY    67  63  87 SE7       29.92F FOG
LANSING*       CLOUDY    67  63  87 S9G16     29.96F
JOLIET*        CLOUDY    69  66  91 S7        29.94S
WAUKEGAN       CLOUDY    66  64  93 S10       29.93R
DUPAGE AIRPORT CLOUDY    67  65  93 S14       29.92F
KANKAKEE*      CLOUDY    68  65  90 S10       29.96S
WHEELING       CLOUDY    68  64  87 S9        29.94F
MORRIS*        CLOUDY    67  65  91 S8        29.92R FOG
ROMEOVILLE*    CLOUDY    67  64  90 S12       29.94S
NORTHERLY ISL    N/A     68  63  84 S16         N/A
$$

LMZ740>746-261200-
SOUTHERN LAKE MICHIGAN

STATION/POSITION SKY/WX   TEMP    WIND        PRES    VSBY  WAVE
                          AIR SEA DIR/SP/G                  HT/PER
                          (F)     (DEG/KT/KT) (MB)    (MI)  (FT/S)
SOUTHERN BUOY              46 38  180/ 12/ 14 1014.7R         1
HARRISON CRIB              67     180/ 19/ 22   N/A
BURNHAM HARBOR             68     190/ 10/ 16   N/A
CALUMET HARBOR             67     180/  5/ 11   N/A
BURNS HARBOR               67     180/  9/ 15 1015.2R
MICHIGAN CITY              67     160/ 14/ 19   N/A
MICHIGAN CITY 6N           62 52  200/ 10/ 12   N/A           1
ST. JOSEPH                 61 54  190/  8/ 10   N/A           1
$$

ILZ025>027-034>036-040-047-049-050-058-095>099-261200-
WEST-CENTRAL ILLINOIS

CITY           SKY/WX    TMP DP  RH WIND       PRES   REMARKS
QUINCY         CLOUDY    69  66  90 SE10      29.79F
GALESBURG*     MOCLDY    68  65  92 SE7       29.84S
MACOMB*        MOCLDY    68  66  94 SE10G16   29.85S
JACKSONVILLE*  CLOUDY    72  68  89 SE13      29.85R
PITTSFIELD*    LGT RAIN  70  67  89 SE10      29.83S
$$

ILZ028>032-037-038-041>044-048-051>054-059>061-261200-
CENTRAL ILLINOIS

CITY           SKY/WX    TMP DP  RH WIND       PRES   REMARKS
PONTIAC        CLOUDY    70  67  91 S13       29.94R
BLOOMINGTON    CLOUDY    69  67  93 S15       29.94S
DECATUR        CLOUDY    69  67  93 SE13      29.92F FOG
PEORIA         CLOUDY    71  66  84 SE9       29.88F
LACON*         CLOUDY    69  65  87 S9G17     29.89S
LINCOLN*       DRIZZLE   70  67  91 SE9       29.88F
SPRINGFIELD    CLOUDY    71  68  90 SE12      29.87F
TAYLORVILLE    CLOUDY    68  66  94 SE13      29.89F
$$

ILZ033-039-045-046-055>057-062-063-261200-
EAST-CENTRAL ILLINOIS

CITY           SKY/WX    TMP DP  RH WIND       PRES   REMARKS
CHAMPAIGN      CLOUDY    68  66  93 S14       29.96S FOG
DANVILLE*      CLOUDY    67  65  93 SE9       29.96S FOG
RANTOUL*       CLOUDY    70  67  92 S12       29.96S FOG
MATTOON        CLOUDY    68  67  96 S13       29.94F FOG
PARIS*         CLOUDY    68  67  96 SE10      29.99S FOG
$$

ILZ079-100>102-261200-
SOUTHWEST ILLINOIS

CITY           SKY/WX    TMP DP  RH WIND       PRES   REMARKS
ALTON          LGT RAIN  71  71 100 SE15      29.86S
BELLEVILLE     CLOUDY    71  71  99 SE13      29.85F
CAHOKIA*       CLOUDY    73  68  84 SE15      29.84F
SPARTA*        CLOUDY    71  67  88 SE13      29.89F
$$

ILZ064>066-069>071-074>076-080>082-084>086-088>090-092>094-261200-
SOUTH-CENTRAL ILLINOIS

CITY           SKY/WX    TMP DP  RH WIND       PRES   REMARKS
CARBONDALE     CLOUDY    71  66  84 S13       29.91S
CAIRO*         CLOUDY    70  67  88 SE16      29.92F
EFFINGHAM*     CLOUDY    69  66  89 SE10G16   29.96S FOG
MARION         CLOUDY    72  68  88 SE8G16    29.94S
MT. VERNON     MOCLDY    72  63  73 SE14      29.95S
CENTRALIA*     CLOUDY    70  65  84 SE10      29.92F
SALEM*         CLOUDY    73  67  83 SE8       29.93F
METROPOLIS*    CLOUDY    70  69  96 SE8       29.95F
$$

ILZ067-068-072-073-078-083-087-091-261200-
SOUTHEAST ILLINOIS

CITY           SKY/WX    TMP DP  RH WIND       PRES   REMARKS
LAWRENCEVILLE  CLOUDY    70  66  87 S13       30.00S
FLORA*         MOCLDY    69  65  89 S14       29.97S
FAIRFIELD*     CLOUDY    69  66  90 SE10      29.96S
HARRISBURG*    CLOUDY    71  68  91 S13       29.98R
ROBINSON*      CLOUDY    69  65  88 S12G17    30.01R
CARMI*         MOCLDY    70  63  78 SE12      29.98S
$$

ABBREVIATIONS USED IN REMARKS
   TC - TEMPERATURE IN CELSIUS
  WCI - WIND CHILL INDEX
   HX - HEAT INDEX
  VSB - VISIBILITY
$$




USA.gov is the U.S. government's official web portal to all federal, state and local government web resources and services.